Regional Weather Roundup
Issued by NWS Sioux Falls, SD

Home | Current Version | Previous Version | Graphics & Text | Print | Product List | Glossary On
Versions: 1 2 3 4 5 6 7 8 9 10 11 12 13 14 15 16 17 18 19 20 21 22 23 24 25 26 27 28 29 30 31 32 33 34 35 36 37 38 39 40 41 42 43 44 45 46 47 48 49 50
000
ASUS43 KFSD 220710
RWRFSD

WEATHER ROUNDUP FOR SE SOUTH DAKOTA/SW MINNESOTA/NW IOWA
NATIONAL WEATHER SERVICE SIOUX FALLS SD
200 AM CDT SUN OCT 22 2017

NOTE: "FAIR" INDICATES FEW OR NO CLOUDS BELOW 12,000 FEET WITH NO
SIGNIFICANT WEATHER AND OR OBSTRUCTIONS TO VISIBILITY.


SDZ038>040-050-052>070-220800-
SOUTHEAST SOUTH DAKOTA

CITY           SKY/WX    TMP DP  RH WIND       PRES   REMARKS
BROOKINGS      CLOUDY    40  36  86 SW7       29.93R
CHAMBERLAIN    CLEAR     39  32  75 W6        29.98R
HURON          CLEAR     40  35  83 SW9       29.93R
MADISON        FAIR      39  37  93 W7        29.95R
MITCHELL       CLEAR     41  35  79 SW6       29.97R
SIOUX FALLS    PTCLDY    44  37  76 SW3       29.97R
WINNER         FAIR      41  27  57 SW7       30.00R
YANKTON        CLEAR     42  36  79 CALM      30.00R
$$

MNZ071-072-080-081-089-090-097-098-220800-
SOUTHWEST MINNESOTA

CITY           SKY/WX    TMP DP  RH WIND       PRES   REMARKS
FAIRMONT       CLOUDY    47  41  80 W10       29.94R
JACKSON        PTCLDY    43  37  81 SW7       29.95R
LUVERNE        CLOUDY    43  36  75 W5        29.96R
MARSHALL       CLEAR     45  39  79 W8        29.92R
MONTEVIDEO     CLEAR     45  39  81 W5        29.89R
PIPESTONE      PTCLDY    39  36  87 CALM      29.93S
REDWOOD FALLS  CLEAR     46  39  76 SW10      29.91R
TRACY          CLEAR     45  40  83 SW6       29.94R
WORTHINGTON    PTCLDY    42  38  85 SW8       29.96R
$$

IAZ001>003-012>014-020>022-031-032-NEZ013-014-SDZ071-220800-
NORTHWEST IOWA

CITY           SKY/WX    TMP DP  RH WIND       PRES   REMARKS
CHEROKEE       CLOUDY    42  41  97 CALM      29.98S
DENISON        CLOUDY    48  43  81 W3        29.99S
ESTHERVILLE    PTCLDY    45  42  89 W7        29.94R
LE MARS        PTCLDY    43  39  87 CALM      29.99R
ORANGE CITY    CLOUDY    43  39  87 CALM      29.98R
SHELDON        PTCLDY    43  37  81 W5        29.96R
SIOUX CITY     CLOUDY    43  39  86 N3        29.99S
SPENCER        CLOUDY    43  39  86 W3        29.96R
STORM LAKE     CLOUDY    46  41  81 W9        29.97S
$$

ABBREVIATIONS USED IN REMARKS
   TC - TEMPERATURE IN CELSIUS
  WCI - WIND CHILL INDEX
   HX - HEAT INDEX
  VSB - VISIBILITY





USA.gov is the U.S. government's official web portal to all federal, state and local government web resources and services.